Showing default

ORBCOMM FM 14, 25419

Orbit data source: Space-Track

ORBCOMM FM 14, 25419 is a payload satellite owned by Orbcomm (US) in LEO that was launched on Sun, 02 Aug 1998 UTC via a PEGASUS XL/HAPS launch vehicle from the Pegasus Launch, Eastern Range Air Space (ERAS). Payload-class satellites include a variety of spacecraft equipped with specific instruments for various scientific and technological missions. These include communications satellites like Starlink; space stations such as the ISS; scientific satellites like the Hubble; Earth observation satellites from companies like Planet Labs, Umbra, and HawkEye 360; GPS; miniature CubeSats for education and research; and military/defense satellites.

Loading next visibility...
Identifier
25419, 1998-046G
Orbit
LEO
Last TLE update
9 hours ago
Origin
Manufacturer
OSC-Germantown
Mission
Non-operational Commercial Communications
Bus & Motor
MICROSTAR, Unknown motor
Mass
42 kg wet, 42 kg dry
Launch date (UTC)
1998-08-02 (27 years ago)
Launch vehicle
PEGASUS XL/HAPS
Launch site
Pegasus Launch, Eastern Range Air Space (ERAS)
Object type
Payload
Rocket body
Debris
Shape & HBR
Cyl + 2 Pan, 4.3 m
Radar Cross Section
1.484 m², Medium (>0.1 m² and < 1m²)

Expand to show TLE details & history

TLE from 9 hours ago
0 ORBCOMM FM 14
1 25419U 98046G   25184.14631332  .00000754  00000-0  28814-3 0  9993
2 25419  44.9957 100.4352 0004359   3.8651 356.2231 14.38948910406739
Epoch: 2025-07-03T03:30Z
TLE epoch observation values (Epoch: 2025-07-03T03:30:41.47Z)
Latitude
Longitude
126.34516°
Altitude
758.866 km
Speed
7.478 km/s
True Right ascension
06h 41m 44s
True Declination
0° 00' 00"
Sunlit
Object was in daylight at epoch
Visualization orbit readout
Latitude
43.97399°
Longitude
-129.09795°
Altitude
765.909 km
Speed
7.477 km/s
Apparent Right ascension
12h 53m 52s
Apparent Declination
5° 02' 17"
Sunlit
Object is in daylight
Visualization observer readout
Local Sidereal Time
00:05:24
Azimuth
343.192° N
Elevation
-43.682°
Doppler factor
1
Orbital elements
Apogee altitude
766.634 km
Perigee altitude
760.408 km
Semi-major axis
7,141.658 km
Eccentricity
0.00044
Inclination
44.9957°
RAAN
100.4352°
Arg. of periapsis
3.8651°
True anomaly
Unknown
Mean anomaly
356.2231°
Eccentric anomaly
Unknown
Mean motion
3.59621 °/min
Orbital period
100.11 mins
BSTAR
0.00028814
Loading maneuver chart data...
Loading SW <> Apogee altitude chart data...

ORBCOMM FM 14 Visibility forecast

Observer location: undefined°, undefined°

Span
Click to sort rows by Start time (UTC) header in descending order
Start Az.
Max El. time (UTC)
Max El. Az.
Max El.
End time (UTC)
End Az.
7 mins2025-07-03 20:19:46.032Z178.91° S2025-07-03 20:22:46.032Z140.879° SSE19.34°2025-07-03 20:26:46.032Z90.995° ESE
9 mins2025-07-03 22:03:46.032Z236.445° WSW2025-07-03 22:07:46.032Z131.174° SE44.164°2025-07-03 22:12:46.032Z68.115° E
8 mins2025-07-03 23:49:46.032Z283.42° WNW2025-07-03 23:52:46.032Z341.866° N38.207°2025-07-03 23:57:46.032Z67.365° ENE
9 mins2025-07-04 01:34:46.032Z297.183° NW2025-07-04 01:38:46.032Z14.782° NNE39.798°2025-07-04 01:43:46.032Z90.13° ESE
9 mins2025-07-04 03:19:46.032Z287.795° WNW2025-07-04 03:23:46.032Z223.596° SW41.561°2025-07-04 03:28:46.032Z131.124° SE
4 mins2025-07-04 05:06:46.032Z246.4° WSW2025-07-04 05:08:46.032Z220.965° SW14.975°2025-07-04 05:10:46.032Z197.023° SSW
|